ARIANE 2 DEB, 27650

Orbit data source: Space-Track

ARIANE 2 DEB, 27650 is space debris in HEO originally from a launch on Fri, 27 Jan 1989 UTC launched from the French Guiana (FRGUI). Debris objects in space refer to the collection of defunct objects orbiting the Earth. Examples of debris include non-operational satellites, rocket bodies, and fragments generated from explosions, collisions, or faulty payload assembly.

Loading next visibility...
Identifier
27650, 1989-006AE
Orbit
HEO
Country
Flag of FRFR
Related business
Manufacturer
EADS/LV
Mission
Spacecraft
Bus & Motor
Unknown
Mass
Unknown
Launch date (UTC)
1989-01-27 (37 years ago)
Launch vehicle
Unknown
Launch site
French Guiana (FRGUI)
Object type
Payload
Rocket body
Debris
Shape & HBR
Unknown shape, 0.3 m
Radar Cross Section
Medium (>0.1 m² and <1 m²)

Expand to show TLE details & history
Last TLE update: 22 hours ago

TLE from 22 hours ago
0 ARIANE 2 DEB
1 27650U 89006AE  26067.60241172  .00000300  00000-0  64577-3 0  9992
2 27650   8.4888 298.6807 7190073 346.9286   1.6027  2.33325864205776
Epoch: 2026-03-08T14:27Z
TLE epoch observation values (Epoch: 2026-03-08T14:27:28.372Z)
Latitude
0.00026°
Longitude
-84.46971°
Altitude
455.49 km
Speed
10.002 km/s
True Right ascension
19h 54m 49s
True Declination
0° 00' 01"
Sunlit
Object was in daylight at epoch
Visualization orbit readout
Latitude
Unknown
Longitude
Unknown
Altitude
Unknown
Speed
Unknown
Apparent Right ascension
Unknown
Apparent Declination
Unknown
Sunlit
N/A
Visualization observer readout
Local Sidereal Time
16:38:22
Azimuth
Unknown
Elevation
Unknown
Doppler factor
Unknown
Orbital elements
Apogee altitude
34,907.612 km
Perigee altitude
370.522 km
Semi-major axis
24,017.204 km
Eccentricity
0.71901
Inclination
8.4888°
RAAN
298.6807°
Arg. of periapsis
346.9286°
True anomaly
13.99019°
Mean anomaly
1.6027°
Eccentric anomaly
5.67991°
Mean motion
0.58312 °/min
Orbital period
617.37 mins
BSTAR
0.00064577
Loading maneuver chart data...
Computing Atmospheric mass density...
Loading historical data...
Loading historical data...
Loading historical data...
Loading historical data...
Loading historical data...
Loading historical data...
Loading historical data...

Documentation

Showing up to 5 results
|